TimeMST,TemperatureF,Dew PointF,Humidity,Sea Level PressureIn,VisibilityMPH,Wind Direction,Wind SpeedMPH,Gust SpeedMPH,PrecipitationIn,Events,Conditions,WindDirDegrees,DateUTC
12:52 AM,-11.0,-18.9,68,30.71,10.0,NNW,12.7,-,N/A,,Clear,340,2014-02-06 07:52:00
1:52 AM,-11.0,-18.9,68,30.69,10.0,North,9.2,-,N/A,,Partly Cloudy,350,2014-02-06 08:52:00
2:52 AM,-11.9,-18.9,71,30.68,10.0,NW,6.9,-,N/A,,Scattered Clouds,320,2014-02-06 09:52:00
3:52 AM,-11.0,-20.0,64,30.66,10.0,NW,8.1,-,N/A,,Mostly Cloudy,310,2014-02-06 10:52:00
4:38 AM,-13.0,-18.4,77,30.38,10.0,West,3.5,-,N/A,,Mostly Cloudy,260,2014-02-06 11:38:00
4:52 AM,-13.0,-18.9,75,30.68,10.0,West,4.6,-,N/A,,Overcast,280,2014-02-06 11:52:00
5:24 AM,-14.8,-20.2,77,30.37,10.0,WNW,3.5,-,N/A,,Mostly Cloudy,300,2014-02-06 12:24:00
5:52 AM,-16.1,-22.0,74,30.68,10.0,Calm,Calm,-,N/A,,Mostly Cloudy,0,2014-02-06 12:52:00
6:27 AM,-16.6,-23.8,70,30.36,10.0,Calm,Calm,-,N/A,,Scattered Clouds,0,2014-02-06 13:27:00
6:52 AM,-16.1,-20.9,79,30.68,10.0,Calm,Calm,-,N/A,,Clear,0,2014-02-06 13:52:00
7:52 AM,-14.1,-18.9,79,30.66,10.0,Calm,Calm,-,N/A,,Clear,0,2014-02-06 14:52:00
8:52 AM,-9.9,-16.1,74,30.65,10.0,South,3.5,-,N/A,,Clear,170,2014-02-06 15:52:00
9:52 AM,-7.1,-13.0,75,30.62,10.0,SSW,6.9,-,N/A,,Clear,200,2014-02-06 16:52:00
10:52 AM,-5.1,-11.0,76,30.60,10.0,SSE,5.8,-,N/A,,Clear,160,2014-02-06 17:52:00
11:52 AM,-4.0,-11.0,72,30.56,10.0,Calm,Calm,-,N/A,,Clear,0,2014-02-06 18:52:00
12:52 PM,-2.9,-9.9,72,30.51,10.0,South,5.8,-,N/A,,Clear,180,2014-02-06 19:52:00
1:52 PM,-0.9,-9.0,69,30.46,10.0,South,4.6,-,N/A,,Clear,170,2014-02-06 20:52:00
2:52 PM,-0.9,-9.9,66,30.44,10.0,Calm,Calm,-,N/A,,Clear,0,2014-02-06 21:52:00
3:52 PM,-0.9,-11.0,62,30.42,10.0,SE,4.6,-,N/A,,Clear,140,2014-02-06 22:52:00
4:52 PM,-4.0,-11.9,69,30.42,10.0,South,5.8,-,N/A,,Clear,170,2014-02-06 23:52:00
5:52 PM,-8.0,-14.1,75,30.42,10.0,Calm,Calm,-,N/A,,Clear,0,2014-02-07 00:52:00
6:52 PM,-8.0,-15.0,71,30.41,10.0,Calm,Calm,-,N/A,,Clear,0,2014-02-07 01:52:00
7:52 PM,-9.0,-15.0,75,30.39,10.0,Calm,Calm,-,N/A,,Clear,0,2014-02-07 02:52:00
8:52 PM,-9.9,-14.1,82,30.37,10.0,Calm,Calm,-,N/A,,Clear,0,2014-02-07 03:52:00
9:52 PM,-16.1,-20.9,79,30.35,10.0,Calm,Calm,-,N/A,,Clear,0,2014-02-07 04:52:00
10:52 PM,-15.0,-18.0,86,30.31,10.0,Calm,Calm,-,N/A,,Clear,0,2014-02-07 05:52:00
11:52 PM,-16.1,-18.9,87,30.29,10.0,Calm,Calm,-,N/A,,Clear,0,2014-02-07 06:52:00